MSC Poh Lin — H8FC — position and weather

sailwx.info

Track history (hours):
 
Tides and Currents Weather Stations Pressure Air Temp Water Temp Dewpoint Dewpoint Depression Visibility Wind Speed Wind Dir Waves Ship Positions

MSC Poh Lin

Last reported at 2014-Nov-22 12:32 UTC. Time now 2014-Nov-22 15:14 UTC.
Position N 39°26' W 000°19'.

Length 294 m; draft 10.4 m.

Type: Ship (hazmat cat A). MMSI: 357405000.

Date/timePositionNaut miles runAvg speedWind from/ knotsBaromVisibWave heightAir tempDewpointWater temp
2014-Nov-22 12:32N 39°26' W 000°19'1 0.7
2014-Nov-22 11:34N 39°26' W 000°20'0 0.0
2014-Nov-22 10:34N 39°26' W 000°20'0 0.0
2014-Nov-22 09:34N 39°26' W 000°20'0 0.0
2014-Nov-22 08:34N 39°26' W 000°20'0 0.0
2014-Nov-22 07:33N 39°26' W 000°20'0 0.0
2014-Nov-22 06:34N 39°26' W 000°20'0 0.0
2014-Nov-22 05:34N 39°26' W 000°20'0 0.0
2014-Nov-22 04:34N 39°26' W 000°20'0 0.0
2014-Nov-22 03:34N 39°26' W 000°20'0 0.0
2014-Nov-22 02:34N 39°26' W 000°20'0 0.0
2014-Nov-22 01:34N 39°26' W 000°20'0 0.0
2014-Nov-22 00:33N 39°26' W 000°20'0 0.0
2014-Nov-21 23:34N 39°26' W 000°20'0 0.0
2014-Nov-21 22:34N 39°26' W 000°20'0 0.0
2014-Nov-21 21:34N 39°26' W 000°20'0 0.0
2014-Nov-21 20:34N 39°26' W 000°20'0 0.0
2014-Nov-21 19:33N 39°26' W 000°20'0 0.0
2014-Nov-21 18:30N 39°26' W 000°20'0 0.0
2014-Nov-21 17:34N 39°26' W 000°20'0 0.0
2014-Nov-21 16:34N 39°26' W 000°20'1 1.3
2014-Nov-21 15:34N 39°26' W 000°18'3 2.3
2014-Nov-21 14:18N 39°24' W 000°16'0 0.0
2014-Nov-21 05:34N 39°24' W 000°15'4 3.9
2014-Nov-21 04:34N 39°26' W 000°11'8 7.3
2014-Nov-21 03:31N 39°28' W 000°02'62 9.6
2014-Nov-20 21:04N 39°53' E 001°12'510.3
2014-Nov-20 20:33N 39°56' E 001°17'1010.3
2014-Nov-20 19:34N 40°01' E 001°29'1110.7
2014-Nov-20 18:33N 40°07' E 001°40'1111.2
2014-Nov-20 17:34N 40°13' E 001°53'1111.1
2014-Nov-20 16:34N 40°19' E 002°05'1111.0
2014-Nov-20 15:34N 40°25' E 002°17'1616.0
2014-Nov-20 14:33N 40°33' E 002°35'1818.3
2014-Nov-20 13:34N 40°43' E 002°55'1817.9
2014-Nov-20 12:33N 40°53' E 003°15'2618.4
2014-Nov-20 11:08N 41°07' E 003°44'915.6
2014-Nov-20 10:32N 41°12' E 003°55'2017.5
2014-Nov-20 09:23N 41°23' E 004°17'2217.6
2014-Nov-20 08:09N 41°34' E 004°42'20918.0
2014-Nov-19 20:33N 43°27' E 008°41'1818.2
2014-Nov-19 19:33N 43°37' E 009°02'1818.4
2014-Nov-19 18:33N 43°47' E 009°24'1818.0
2014-Nov-19 17:33N 43°56' E 009°45'1110.9
2014-Nov-19 16:33N 44°06' E 009°51'0 0.0
2014-Nov-19 15:33N 44°06' E 009°51'0 0.0
2014-Nov-19 14:31N 44°06' E 009°51'0 0.0
2014-Nov-19 13:31N 44°06' E 009°51'0 0.0
2014-Nov-19 12:31N 44°06' E 009°51'0 0.0
2014-Nov-19 11:31N 44°06' E 009°51'0 0.0
2014-Nov-19 10:31N 44°06' E 009°51'0 0.0
2014-Nov-19 09:31N 44°06' E 009°51'0 0.0
2014-Nov-19 08:31N 44°06' E 009°51'0 0.0
2014-Nov-19 07:31N 44°06' E 009°51'0 0.0
2014-Nov-19 06:31N 44°06' E 009°51'0 0.0
2014-Nov-19 05:31N 44°06' E 009°51'0 0.0
2014-Nov-19 04:31N 44°06' E 009°51'0 0.0
2014-Nov-19 03:31N 44°06' E 009°51'0 0.0
2014-Nov-19 02:28N 44°06' E 009°51'0 0.0
2014-Nov-19 01:31N 44°06' E 009°51'0 0.0
2014-Nov-19 00:31N 44°06' E 009°51'1 1.4
2014-Nov-18 23:33N 44°05' E 009°51'6 6.1
2014-Nov-18 22:33N 44°00' E 009°56'1615.9
2014-Nov-18 21:33N 43°45' E 009°50'2020.3
2014-Nov-18 20:33N 43°25' E 009°44'2019.6
2014-Nov-18 19:33N 43°08' E 009°57'4019.2
2014-Nov-18 17:28N 42°32' E 010°22'167 4.1
2014-Nov-17 01:05N 40°55' E 013°24'815.7
2014-Nov-17 00:33N 40°49' E 013°33'1515.3
2014-Nov-16 23:33N 40°39' E 013°47'1615.6
2014-Nov-16 22:33N 40°41' E 014°08'1111.1
2014-Nov-16 21:33N 40°50' E 014°17'0 0.3
2014-Nov-16 20:33N 40°50' E 014°17'0 0.0
2014-Nov-16 19:33N 40°50' E 014°17'0 0.0
2014-Nov-16 17:12N 40°50' E 014°17'0 0.0
2014-Nov-16 16:30N 40°50' E 014°17'0 0.0
2014-Nov-16 13:18N 40°50' E 014°17'0 0.0
2014-Nov-16 05:26N 40°50' E 014°17'2 2.0
2014-Nov-16 04:33N 40°49' E 014°18'7 7.0
2014-Nov-16 03:33N 40°43' E 014°15'1616.0
2014-Nov-16 02:33N 40°27' E 014°13'  
Track history (hours):
 
Tides and Currents Weather Stations Pressure Air Temp Water Temp Dewpoint Dewpoint Depression Visibility Wind Speed Wind Dir Waves Ship Positions

MSC Poh Lin

Last reported at 2014-Nov-22 12:32 UTC. Time now 2014-Nov-22 15:14 UTC.
Position N 39°26' W 000°19'.

Length 294 m; draft 10.4 m.

Type: Ship (hazmat cat A). MMSI: 357405000.

Date/timePositionNaut miles runAvg speedWind from/ knotsBaromVisibWave heightAir tempDewpointWater temp
2014-Nov-22 12:32N 39°26' W 000°19'1 0.7
2014-Nov-22 11:34N 39°26' W 000°20'0 0.0
2014-Nov-22 10:34N 39°26' W 000°20'0 0.0
2014-Nov-22 09:34N 39°26' W 000°20'0 0.0
2014-Nov-22 08:34N 39°26' W 000°20'0 0.0
2014-Nov-22 07:33N 39°26' W 000°20'0 0.0
2014-Nov-22 06:34N 39°26' W 000°20'0 0.0
2014-Nov-22 05:34N 39°26' W 000°20'0 0.0
2014-Nov-22 04:34N 39°26' W 000°20'0 0.0
2014-Nov-22 03:34N 39°26' W 000°20'0 0.0
2014-Nov-22 02:34N 39°26' W 000°20'0 0.0
2014-Nov-22 01:34N 39°26' W 000°20'0 0.0
2014-Nov-22 00:33N 39°26' W 000°20'0 0.0
2014-Nov-21 23:34N 39°26' W 000°20'0 0.0
2014-Nov-21 22:34N 39°26' W 000°20'0 0.0
2014-Nov-21 21:34N 39°26' W 000°20'0 0.0
2014-Nov-21 20:34N 39°26' W 000°20'0 0.0
2014-Nov-21 19:33N 39°26' W 000°20'0 0.0
2014-Nov-21 18:30N 39°26' W 000°20'0 0.0
2014-Nov-21 17:34N 39°26' W 000°20'0 0.0
2014-Nov-21 16:34N 39°26' W 000°20'1 1.3
2014-Nov-21 15:34N 39°26' W 000°18'3 2.3
2014-Nov-21 14:18N 39°24' W 000°16'0 0.0
2014-Nov-21 05:34N 39°24' W 000°15'4 3.9
2014-Nov-21 04:34N 39°26' W 000°11'8 7.3
2014-Nov-21 03:31N 39°28' W 000°02'62 9.6
2014-Nov-20 21:04N 39°53' E 001°12'510.3
2014-Nov-20 20:33N 39°56' E 001°17'1010.3
2014-Nov-20 19:34N 40°01' E 001°29'1110.7
2014-Nov-20 18:33N 40°07' E 001°40'1111.2
2014-Nov-20 17:34N 40°13' E 001°53'1111.1
2014-Nov-20 16:34N 40°19' E 002°05'1111.0
2014-Nov-20 15:34N 40°25' E 002°17'1616.0
2014-Nov-20 14:33N 40°33' E 002°35'1818.3
2014-Nov-20 13:34N 40°43' E 002°55'1817.9
2014-Nov-20 12:33N 40°53' E 003°15'2618.4
2014-Nov-20 11:08N 41°07' E 003°44'915.6
2014-Nov-20 10:32N 41°12' E 003°55'2017.5
2014-Nov-20 09:23N 41°23' E 004°17'2217.6
2014-Nov-20 08:09N 41°34' E 004°42'20918.0
2014-Nov-19 20:33N 43°27' E 008°41'1818.2
2014-Nov-19 19:33N 43°37' E 009°02'1818.4
2014-Nov-19 18:33N 43°47' E 009°24'1818.0
2014-Nov-19 17:33N 43°56' E 009°45'1110.9
2014-Nov-19 16:33N 44°06' E 009°51'0 0.0
2014-Nov-19 15:33N 44°06' E 009°51'0 0.0
2014-Nov-19 14:31N 44°06' E 009°51'0 0.0
2014-Nov-19 13:31N 44°06' E 009°51'0 0.0
2014-Nov-19 12:31N 44°06' E 009°51'0 0.0
2014-Nov-19 11:31N 44°06' E 009°51'0 0.0
2014-Nov-19 10:31N 44°06' E 009°51'0 0.0
2014-Nov-19 09:31N 44°06' E 009°51'0 0.0
2014-Nov-19 08:31N 44°06' E 009°51'0 0.0
2014-Nov-19 07:31N 44°06' E 009°51'0 0.0
2014-Nov-19 06:31N 44°06' E 009°51'0 0.0
2014-Nov-19 05:31N 44°06' E 009°51'0 0.0
2014-Nov-19 04:31N 44°06' E 009°51'0 0.0
2014-Nov-19 03:31N 44°06' E 009°51'0 0.0
2014-Nov-19 02:28N 44°06' E 009°51'0 0.0
2014-Nov-19 01:31N 44°06' E 009°51'0 0.0
2014-Nov-19 00:31N 44°06' E 009°51'1 1.4
2014-Nov-18 23:33N 44°05' E 009°51'6 6.1
2014-Nov-18 22:33N 44°00' E 009°56'1615.9
2014-Nov-18 21:33N 43°45' E 009°50'2020.3
2014-Nov-18 20:33N 43°25' E 009°44'2019.6
2014-Nov-18 19:33N 43°08' E 009°57'4019.2
2014-Nov-18 17:28N 42°32' E 010°22'167 4.1
2014-Nov-17 01:05N 40°55' E 013°24'815.7
2014-Nov-17 00:33N 40°49' E 013°33'1515.3
2014-Nov-16 23:33N 40°39' E 013°47'1615.6
2014-Nov-16 22:33N 40°41' E 014°08'1111.1
2014-Nov-16 21:33N 40°50' E 014°17'0 0.3
2014-Nov-16 20:33N 40°50' E 014°17'0 0.0
2014-Nov-16 19:33N 40°50' E 014°17'0 0.0
2014-Nov-16 17:12N 40°50' E 014°17'0 0.0
2014-Nov-16 16:30N 40°50' E 014°17'0 0.0
2014-Nov-16 13:18N 40°50' E 014°17'0 0.0
2014-Nov-16 05:26N 40°50' E 014°17'2 2.0
2014-Nov-16 04:33N 40°49' E 014°18'7 7.0
2014-Nov-16 03:33N 40°43' E 014°15'1616.0
2014-Nov-16 02:33N 40°27' E 014°13'  

Dump ship's entire track history